Location: Dehesa de la Cepeda
(40.6574°N, 4.3013°W)
Time: 04:52:18
(UTC+00:00)

A-11 Canister half - All Passes

Search period start: 31 July 2021 00:00
Search period end: 10 August 2021 00:00
Orbit: 1513 x 1687 km, 47.2° (Epoch: 30 July)

Date Brightness Start Highest point End Pass type
(mag) Time Alt. Az. Time Alt. Az. Time Alt. Az.
31 Jul - 01:57:08 10° W 02:03:56 21° SW 02:10:42 10° SSW visible
31 Jul - 15:09:06 10° S 15:16:26 25° SE 15:23:57 10° ENE daylight
31 Jul - 17:10:32 10° SW 17:20:14 75° SE 17:30:18 10° ENE daylight
31 Jul - 19:15:52 10° W 19:25:43 64° N 19:35:51 10° ENE daylight
31 Jul - 21:21:54 10° WNW 21:31:58 66° NNE 21:42:08 10° E visible
31 Jul - 23:27:16 10° WNW 23:37:21 69° SW 23:47:23 10° SE visible
01 Aug - 01:33:54 10° W 01:41:06 22° SW 01:48:15 10° S visible
01 Aug - 14:46:37 10° S 14:53:36 23° SE 15:00:47 10° E daylight
01 Aug - 16:47:40 10° SW 16:57:18 72° SE 17:07:18 10° ENE daylight
01 Aug - 18:52:52 10° W 19:02:41 65° NNW 19:12:49 10° ENE daylight
01 Aug - 20:58:55 10° WNW 21:08:57 65° NNE 21:19:06 10° E visible
01 Aug - 23:04:18 10° WNW 23:14:25 72° SW 23:24:30 10° SE visible
02 Aug - 01:10:43 10° WNW 01:18:15 24° SW 01:25:45 10° S visible
02 Aug - 14:24:09 10° S 14:30:47 21° SE 14:37:34 10° E daylight
02 Aug - 16:24:49 10° SW 16:34:23 69° SE 16:44:19 10° ENE daylight
02 Aug - 18:29:53 10° W 18:39:41 66° NNW 18:49:49 10° ENE daylight
02 Aug - 20:35:57 10° WNW 20:45:56 64° NNE 20:56:04 10° E visible
02 Aug - 22:41:21 10° WNW 22:51:28 76° SW 23:01:36 10° SE visible
03 Aug - 00:47:34 10° WNW 00:55:24 26° SW 01:03:12 10° S visible
03 Aug - 14:01:45 10° SSE 14:07:58 20° SE 14:14:19 10° E daylight
03 Aug - 16:01:59 10° SW 16:11:28 65° SE 16:21:19 10° ENE daylight
03 Aug - 18:06:53 10° W 18:16:41 67° NNW 18:26:48 10° ENE daylight
03 Aug - 20:12:58 10° WNW 20:22:55 63° N 20:33:02 10° E visible
03 Aug - 22:18:23 10° WNW 22:28:31 79° SSW 22:38:41 10° SE visible
04 Aug - 00:24:26 10° WNW 00:32:33 28° SW 00:40:37 10° S visible
04 Aug - 13:39:24 10° SSE 13:45:09 18° ESE 13:51:01 10° E daylight
04 Aug - 15:39:10 10° SW 15:48:34 62° SE 15:58:20 10° ENE daylight
04 Aug - 17:43:54 10° W 17:53:41 69° NNW 18:03:48 10° ENE daylight
04 Aug - 19:49:58 10° WNW 19:59:53 62° N 20:10:00 10° E visible
04 Aug - 21:55:25 10° WNW 22:05:34 82° SSW 22:15:46 10° SE visible
05 Aug - 00:01:20 10° WNW 00:09:40 30° SW 00:18:00 10° S visible
05 Aug - 13:17:08 10° SSE 13:22:21 16° ESE 13:27:39 10° E daylight
05 Aug - 15:16:22 10° SW 15:25:40 59° SE 15:35:20 10° ENE daylight
05 Aug - 17:20:57 10° WSW 17:30:41 70° NNW 17:40:48 10° ENE daylight
05 Aug - 19:27:00 10° WNW 19:36:52 62° N 19:46:57 10° E daylight
05 Aug - 21:32:27 10° WNW 21:42:36 85° SSW 21:52:49 10° SE visible
05 Aug - 23:38:15 10° WNW 23:46:48 32° SW 23:55:22 10° S visible
06 Aug - 12:54:58 10° SSE 12:59:33 15° ESE 13:04:11 10° E daylight
06 Aug - 14:53:34 10° SW 15:02:46 56° SE 15:12:21 10° ENE daylight
06 Aug - 16:57:58 10° WSW 17:07:42 72° NNW 17:17:47 10° ENE daylight
06 Aug - 19:04:01 10° WNW 19:13:50 61° N 19:23:54 10° E daylight
06 Aug - 21:09:30 10° WNW 21:19:38 88° SSW 21:29:52 10° ESE visible
06 Aug - 23:15:10 10° WNW 23:23:56 35° SW 23:32:42 10° SSE visible
07 Aug - 12:32:58 10° SE 12:36:45 13° ESE 12:40:35 10° E daylight
07 Aug - 14:30:48 10° SSW 14:39:53 53° SE 14:49:20 10° ENE daylight
07 Aug - 16:35:01 10° WSW 16:44:43 74° NNW 16:54:48 10° ENE daylight
07 Aug - 18:41:03 10° WNW 18:50:49 60° N 19:00:52 10° E daylight
07 Aug - 20:46:33 10° WNW 20:56:40 89° NNE 21:06:55 10° ESE visible
07 Aug - 22:52:08 10° WNW 23:01:04 37° SW 23:10:01 10° SSE visible
08 Aug - 12:11:15 10° SE 12:13:57 11° ESE 12:16:41 10° ESE daylight
08 Aug - 14:08:02 10° SSW 14:17:00 50° SE 14:26:20 10° ENE daylight
08 Aug - 16:12:04 10° WSW 16:21:44 76° NNW 16:31:48 10° ENE daylight
08 Aug - 18:18:03 10° WNW 18:27:47 60° N 18:37:49 10° E daylight
08 Aug - 20:23:37 10° WNW 20:33:41 87° NNE 20:43:56 10° ESE visible
08 Aug - 22:29:06 10° WNW 22:38:10 39° SW 22:47:18 10° SSE visible
09 Aug - 13:45:17 10° SSW 13:54:08 47° SE 14:03:18 10° ENE daylight
09 Aug - 15:49:07 10° WSW 15:58:45 78° NNW 16:08:48 10° ENE daylight
09 Aug - 17:55:04 10° WNW 18:04:46 60° N 18:14:47 10° E daylight
09 Aug - 20:00:40 10° WNW 20:10:43 84° NNE 20:20:58 10° ESE visible
09 Aug - 22:06:05 10° WNW 22:15:17 42° SW 22:24:33 10° SSE visible
